This demonstration page uses our WeatherBlox Daily Observations layout. Learn more.

Left ArrowRight Arrow

38.80484, -77.04692

Hourly Observations for September 3, 2021

Temp ( °F °C ) Dew Point ( °F °C ) Humidity (%) Winds ( mph kmh ) Pressure ( in mb ) Visibility ( mi km ) Precip ( " mm )
12:52 am 00:52 Mostly Clear 66 18.9 51 10.6 59 59 N N/A 30.04 1017 9 14 N/A
1:52 am 01:52 Clear 63 17.2 53 11.7 70 70 N 10 17 30.04 1017 8 13 N/A
2:52 am 02:52 Clear 62 16.7 53 11.7 73 73 NNW 8 13 30.04 1017 7 11 N/A
3:52 am 03:52 Clear 62 16.7 52 11.1 70 70 NNW 7 11 30.05 1018 10 16 N/A
4:52 am 04:52 Clear 61 16.1 52 11.1 72 72 NNW 7 11 30.06 1018 10 16 N/A
5:52 am 05:52 Clear 60 15.6 51 10.6 72 72 NNW 8 13 30.06 1018 10 16 N/A
6:52 am 06:52 Mostly Sunny 59 15 51 10.6 75 75 NNW 7 11 30.09 1019 10 16 N/A
7:52 am 07:52 Mostly Sunny 63 17.2 52 11.1 68 68 NNW 7 11 30.10 1019 10 16 N/A
8:52 am 08:52 Mostly Sunny 67 19.4 52 11.1 59 59 N 5 7 30.11 1020 10 16 N/A
9:52 am 09:52 Mostly Sunny 70 21.1 51 10.6 51 51 NNE 3 6 30.11 1020 10 16 N/A
10:52 am 10:52 Mostly Sunny 73 22.8 51 10.6 46 46 NNW 9 15 30.12 1020 10 16 N/A
11:52 am 11:52 Mostly Sunny 74 23.3 50 10 43 43 VRB 6 9 30.11 1020 10 16 N/A
12:52 pm 12:52 Sunny 76 24.4 51 10.6 42 42 NNW 7 11 30.10 1019 10 16 N/A
1:52 pm 13:52 Mostly Sunny 77 25 51 10.6 40 40 NW 5 7 30.09 1019 10 16 N/A
2:52 pm 14:52 Mostly Sunny 78 25.6 53 11.7 42 42 NW 7 11 30.06 1018 10 16 N/A
3:52 pm 15:52 Partly Cloudy 79 26.1 54 12.2 42 42 NNW 10 17 30.05 1018 10 16 N/A
4:52 pm 16:52 Mostly Sunny 79 26.1 54 12.2 42 42 W 8 13 30.05 1018 10 16 N/A
5:52 pm 17:52 Mostly Sunny 77 25 54 12.2 45 45 N 6 9 30.05 1018 10 16 N/A
6:52 pm 18:52 Mostly Sunny 75 23.9 54 12.2 48 48 NNW 7 11 30.05 1018 10 16 N/A
7:52 pm 19:52 Mostly Clear 73 22.8 55 12.8 53 53 N 6 9 30.06 1018 10 16 N/A
8:52 pm 20:52 Mostly Clear 71 21.7 58 14.4 63 63 ESE 6 9 30.09 1019 10 16 0.00 0.00
9:52 pm 21:52 Mostly Clear 69 20.6 58 14.4 68 68 SSE 3 6 30.10 1019 10 16 N/A
10:52 pm 22:52 Mostly Clear 70 21.1 58 14.4 66 66 N N/A 30.10 1019 10 16 N/A
11:52 pm 23:52 Mostly Clear 68 20 59 15 73 73 NE 5 7 30.10 1019 10 16 N/A

Powered by AerisWeather